Weather History for KISW - March, 2013

Change the Weather History Date:

Saturday, March 2, 2013

  Actual Average Record
Temperature  
Mean Temperature 16 °F -  
Max Temperature 25 °F 34 °F 61 °F (1964)
Min Temperature 8 °F 15 °F -13 °F (1950)
Degree Days  
Heating Degree Days 48    
Moisture  
Dew Point 5 °F    
Average Humidity 62    
Maximum Humidity 77    
Minimum Humidity 46    
Precipitation  
Precipitation 0.00 in - - ()
Sea Level Pressure  
Sea Level Pressure 30.28 in    
Wind  
Wind Speed 7 mph (NNW)    
Max Wind Speed 9 mph    
Max Gust Speed 16 mph    
Visibility 10 miles    
Events      
Averages and records for this station are not official NWS values.
T = Trace of Precipitation, MM = Missing Value Source: NWS Daily Summary

Daily Weather History Graph

Daily Weather History Graph

Search for Another Location

Airport or City:

Trip Planner

Search our weather history database for the weather conditions in past years. The results will help you decide how hot, cold, wet, or windy it might be!

Date:

Astronomy

Mar. 02, 2013 Rise Set
Actual Time 6:34 AM CST 5:49 PM CST
Civil Twilight 6:05 AM CST 6:18 PM CST
Nautical Twilight 5:31 AM CST 6:51 PM CST
Astronomical Twilight 4:58 AM CST 7:25 PM CST
Moon 11:43 PM CST (3/2) 8:49 AM CST (3/2)
Length of Visible Light 12h 12m
Length of Day
11h 14m
Waning Gibbous, 74% of the Moon is Illuminated
Mar 2
Waning Gibbous
Mar 4
Last Quarter
Mar 11
New
Mar 19
First Quarter
Mar 27
Full

Hourly Weather History & Observations

Time (CST) Temp. Windchill Dew Point Humidity Pressure Visibility Wind Dir Wind Speed Gust Speed Precip Events Conditions
1:54 AM 15.1 °F 5.2 °F 3.9 °F 61% 30.32 in 10.0 mi NE 6.9 mph - N/A   Clear
2:54 AM 12.9 °F 0.7 °F 3.9 °F 67% 30.32 in 10.0 mi NNE 9.2 mph - N/A   Clear
3:54 AM 12.0 °F 2.7 °F 3.9 °F 70% 30.32 in 10.0 mi North 5.8 mph - N/A   Clear
4:54 AM 10.0 °F -0.9 °F 3.0 °F 73% 30.32 in 10.0 mi North 6.9 mph - N/A   Clear
5:54 AM 9.0 °F -2.2 °F 3.0 °F 77% 30.33 in 10.0 mi North 6.9 mph - N/A   Clear
6:54 AM 8.1 °F -2.0 °F 1.9 °F 76% 30.33 in 10.0 mi North 5.8 mph - N/A   Clear
7:54 AM 10.9 °F -0.8 °F 3.9 °F 73% 30.33 in 10.0 mi North 8.1 mph - N/A   Clear
8:54 AM 17.1 °F 5.8 °F 6.1 °F 62% 30.33 in 10.0 mi NNE 9.2 mph - N/A   Clear
9:54 AM 19.0 °F 8.2 °F 8.1 °F 62% 30.32 in 10.0 mi NNE 9.2 mph - N/A   Clear
10:54 AM 19.9 °F 11.1 °F 8.1 °F 60% 30.31 in 10.0 mi Variable 6.9 mph 16.1 mph N/A   Clear
11:54 AM 21.0 °F 10.6 °F 8.1 °F 57% 30.30 in 10.0 mi North 9.2 mph - N/A   Clear
12:54 PM 23.0 °F 14.7 °F 7.0 °F 50% 30.27 in 10.0 mi North 6.9 mph - N/A   Clear
2:54 PM 24.1 °F 15.2 °F 8.1 °F 51% 30.25 in 10.0 mi NW 8.1 mph - N/A   Clear
3:54 PM 25.0 °F 17.1 °F 8.1 °F 49% 30.23 in 10.0 mi Variable 6.9 mph - N/A   Clear
4:54 PM 25.0 °F 16.3 °F 7.0 °F 46% 30.24 in 10.0 mi NW 8.1 mph - N/A   Clear
5:54 PM 23.0 °F - 6.1 °F 48% 30.24 in 10.0 mi Calm Calm - N/A   Clear
6:54 PM 17.1 °F 11.7 °F 5.0 °F 59% 30.25 in 10.0 mi WNW 3.5 mph - N/A   Clear
7:54 PM 15.1 °F 9.4 °F 3.9 °F 61% 30.24 in 10.0 mi West 3.5 mph - N/A   Clear
8:54 PM 16.0 °F 10.4 °F 5.0 °F 62% 30.23 in 10.0 mi West 3.5 mph - N/A   Clear
9:54 PM 17.1 °F 10.0 °F 3.9 °F 56% 30.22 in 10.0 mi West 4.6 mph - N/A   Clear
10:54 PM 12.9 °F - 3.9 °F 67% 30.22 in 10.0 mi Calm Calm - N/A   Clear
11:54 PM 10.0 °F - 1.9 °F 70% 30.21 in 10.0 mi Calm Calm - N/A   Mostly Cloudy